"Pseudo-MPEC" for P20MiyV

Created 2019 Feb 19 10:18:07 UT using Find_Orb

Click here for an explanation of pseudo-MPECs

 
 Astrometry: 
     P20MiyV  C2019 02 09e!ZAstrometry'(/4x8eT!vYcBredacted;Q\VOXd,upvC]cse.*F52
     P20MiyV  C2019 02 09m=rEclick0^T1Z3gw/Z@H8*T3*0here8m^:XlxLcqqs/K*C9L@DTF52
     P20MiyV  C2019 02 09BlFL4for'*D?x\30N2\8].1F3pivexplanation/)@KgdRgx3LwRF52

Station data:
(F52) Pan-STARRS 2, Haleakala  (N20.707384 W156.255910)  US/Hawaii.

Orbital elements:  P20MiyV
   Perihelion 2018 Sep 10.427925 +/- 77 TT = 10:16:12 (JD 2458371.927925)
Epoch 2019 Feb  9.0 TT = JDT 2458523.5   Earth MOID: 0.0127   Ve: 0.0389
M 179.71965195 +/- 120              (J2000 ecliptic)          AutoNEOCP
n   1.18570423 +/- 0.699            Peri.  196.89424 +/- 60
a   0.88406690 +/- 0.347            Node   123.27069 +/- 70
e   0.1450679 +/- 0.229             Incl.    2.82951 +/- 53
P   0.83/303.61d           H 27.1   G  0.15   U 12.5  SR
q 0.75581717 +/- 0.354    Q 1.01231663 +/- 11.3
From 3 observations 2019 Feb. 9 (36.0 min); mean residual 0".14
Residuals in arcseconds: 
190209 F52  .12+  .06+    190209 F52  .25-  .12-    190209 F52  .12+  .06+    

Ephemerides (geocentric):
Date (UTC) HH   RA              Dec         delta   r     elong  mag " sig PA
---- -- -- --  -------------   -----------  ------ ------ -----  --- ---- ---
2019 02 19 10  08 22 45.756   +59 44 02.84  .03473 1.0101 127.8 21.7  35d 134
2019 02 19 11  08 22 00.989   +59 46 21.48  .03477 1.0101 127.7 21.7  35d 133
2019 02 19 12  08 21 16.230   +59 48 38.75  .03481 1.0101 127.6 21.7  35d 133
2019 02 19 13  08 20 31.480   +59 50 54.65  .03485 1.0101 127.4 21.7  35d 133
2019 02 19 14  08 19 46.741   +59 53 09.18  .03488 1.0100 127.3 21.7  35d 133
2019 02 19 15  08 19 02.012   +59 55 22.34  .03492 1.0100 127.2 21.7  35d 133
2019 02 19 16  08 18 17.297   +59 57 34.14  .03496 1.0100 127.1 21.7  35d 133
2019 02 19 17  08 17 32.594   +59 59 44.59  .03500 1.0100 127.0 21.7  35d 133
2019 02 19 18  08 16 47.907   +60 01 53.69  .03504 1.0100 126.9 21.7  35d 133
2019 02 19 19  08 16 03.235   +60 04 01.43  .03508 1.0099 126.8 21.7  35d 133
2019 02 19 20  08 15 18.579   +60 06 07.84  .03512 1.0099 126.7 21.7  35d 133
2019 02 19 21  08 14 33.942   +60 08 12.91  .03516 1.0099 126.6 21.8  35d 133
2019 02 19 22  08 13 49.323   +60 10 16.64  .03520 1.0099 126.5 21.8  35d 133
2019 02 19 23  08 13 04.724   +60 12 19.05  .03524 1.0099 126.4 21.8  35d 133
2019 02 20 00  08 12 20.146   +60 14 20.12  .03528 1.0098 126.2 21.8  35d 133
2019 02 20 01  08 11 35.589   +60 16 19.88  .03532 1.0098 126.1 21.8  35d 133
2019 02 20 02  08 10 51.056   +60 18 18.33  .03536 1.0098 126.0 21.8  35d 132
2019 02 20 03  08 10 06.547   +60 20 15.46  .03540 1.0098 125.9 21.8  35d 132
2019 02 20 04  08 09 22.063   +60 22 11.29  .03545 1.0098 125.8 21.8  35d 132
2019 02 20 05  08 08 37.605   +60 24 05.81  .03549 1.0097 125.7 21.8  35d 132
2019 02 20 06  08 07 53.175   +60 25 59.04  .03553 1.0097 125.6 21.8  35d 132
2019 02 20 07  08 07 08.772   +60 27 50.98  .03557 1.0097 125.5 21.8  35d 132
2019 02 20 08  08 06 24.399   +60 29 41.63  .03561 1.0097 125.4 21.8  35d 132
2019 02 20 09  08 05 40.056   +60 31 31.00  .03565 1.0097 125.3 21.8  35d 132
2019 02 20 10  08 04 55.744   +60 33 19.09  .03569 1.0097 125.2 21.8  35d 132
2019 02 20 11  08 04 11.464   +60 35 05.90  .03573 1.0096 125.1 21.8  35d 132
2019 02 20 12  08 03 27.218   +60 36 51.46  .03577 1.0096 125.0 21.8  35d 132
2019 02 20 13  08 02 43.006   +60 38 35.74  .03582 1.0096 124.8 21.8  35d 132
2019 02 20 14  08 01 58.829   +60 40 18.78  .03586 1.0096 124.7 21.8  35d 132
2019 02 20 15  08 01 14.689   +60 42 00.56  .03590 1.0096 124.6 21.9  35d 132
2019 02 20 16  08 00 30.585   +60 43 41.09  .03594 1.0095 124.5 21.9  35d 132
2019 02 20 17  07 59 46.520   +60 45 20.38  .03598 1.0095 124.4 21.9  35d 132
2019 02 20 18  07 59 02.495   +60 46 58.44  .03603 1.0095 124.3 21.9  35d 131
2019 02 20 19  07 58 18.509   +60 48 35.26  .03607 1.0095 124.2 21.9  35d 131
2019 02 20 20  07 57 34.565   +60 50 10.86  .03611 1.0095 124.1 21.9  35d 131
2019 02 20 21  07 56 50.663   +60 51 45.23  .03615 1.0094 124.0 21.9  35d 131
2019 02 20 22  07 56 06.804   +60 53 18.39  .03620 1.0094 123.9 21.9  35d 131
2019 02 20 23  07 55 22.988   +60 54 50.34  .03624 1.0094 123.8 21.9  35d 131
2019 02 21 00  07 54 39.218   +60 56 21.09  .03628 1.0094 123.7 21.9  35d 131
2019 02 21 01  07 53 55.494   +60 57 50.63  .03632 1.0093 123.6 21.9  35d 131
2019 02 21 02  07 53 11.817   +60 59 18.98  .03637 1.0093 123.5 21.9  35d 131
2019 02 21 03  07 52 28.188   +61 00 46.15  .03641 1.0093 123.4 21.9  35d 131
2019 02 21 04  07 51 44.607   +61 02 12.13  .03645 1.0093 123.2 21.9  35d 131
2019 02 21 05  07 51 01.076   +61 03 36.93  .03650 1.0093 123.1 21.9  35d 131
2019 02 21 06  07 50 17.596   +61 05 00.56  .03654 1.0092 123.0 21.9  35d 131
2019 02 21 07  07 49 34.167   +61 06 23.02  .03658 1.0092 122.9 21.9  35d 131
2019 02 21 08  07 48 50.790   +61 07 44.32  .03662 1.0092 122.8 21.9  35d 131
2019 02 21 09  07 48 07.467   +61 09 04.46  .03667 1.0092 122.7 22.0  35d 131